Index of /20260427/WXO-DD/model_rdps/10km/18/073
Name Last modified Size Description
Parent Directory -
20260427T18Z_MSC_RDPS_AbsoluteVorticity_IsbL-0250_RLatLon0.09_PT073H.grib2 2026-04-27 21:02 618K
20260427T18Z_MSC_RDPS_AbsoluteVorticity_IsbL-0500_RLatLon0.09_PT073H.grib2 2026-04-27 21:02 705K
20260427T18Z_MSC_RDPS_AbsoluteVorticity_IsbL-0700_RLatLon0.09_PT073H.grib2 2026-04-27 21:02 622K
20260427T18Z_MSC_RDPS_AbsoluteVorticity_IsbL-0850_RLatLon0.09_PT073H.grib2 2026-04-27 21:02 775K
20260427T18Z_MSC_RDPS_AirTemp_AGL-120m_RLatLon0.09_PT073H.grib2 2026-04-27 21:02 395K
20260427T18Z_MSC_RDPS_AirTemp_AGL-2m_RLatLon0.09_PT073H.grib2 2026-04-27 21:02 632K
20260427T18Z_MSC_RDPS_AirTemp_AGL-40m_RLatLon0.09_PT073H.grib2 2026-04-27 21:02 405K
20260427T18Z_MSC_RDPS_AirTemp_AGL-80m_RLatLon0.09_PT073H.grib2 2026-04-27 21:02 399K
20260427T18Z_MSC_RDPS_AirTemp_IsbL-0001_RLatLon0.09_PT073H.grib2 2026-04-27 21:02 287K
20260427T18Z_MSC_RDPS_AirTemp_IsbL-0005_RLatLon0.09_PT073H.grib2 2026-04-27 21:02 293K
20260427T18Z_MSC_RDPS_AirTemp_IsbL-0010_RLatLon0.09_PT073H.grib2 2026-04-27 21:02 306K
20260427T18Z_MSC_RDPS_AirTemp_IsbL-0020_RLatLon0.09_PT073H.grib2 2026-04-27 21:02 322K
20260427T18Z_MSC_RDPS_AirTemp_IsbL-0030_RLatLon0.09_PT073H.grib2 2026-04-27 21:02 345K
20260427T18Z_MSC_RDPS_AirTemp_IsbL-0050_RLatLon0.09_PT073H.grib2 2026-04-27 21:02 315K
20260427T18Z_MSC_RDPS_AirTemp_IsbL-0100_RLatLon0.09_PT073H.grib2 2026-04-27 21:02 423K
20260427T18Z_MSC_RDPS_AirTemp_IsbL-0150_RLatLon0.09_PT073H.grib2 2026-04-27 21:02 423K
20260427T18Z_MSC_RDPS_AirTemp_IsbL-0175_RLatLon0.09_PT073H.grib2 2026-04-27 21:02 412K
20260427T18Z_MSC_RDPS_AirTemp_IsbL-0200_RLatLon0.09_PT073H.grib2 2026-04-27 21:02 415K
20260427T18Z_MSC_RDPS_AirTemp_IsbL-0225_RLatLon0.09_PT073H.grib2 2026-04-27 21:02 417K
20260427T18Z_MSC_RDPS_AirTemp_IsbL-0250_RLatLon0.09_PT073H.grib2 2026-04-27 21:02 425K
20260427T18Z_MSC_RDPS_AirTemp_IsbL-0275_RLatLon0.09_PT073H.grib2 2026-04-27 21:02 403K
20260427T18Z_MSC_RDPS_AirTemp_IsbL-0300_RLatLon0.09_PT073H.grib2 2026-04-27 21:02 433K
20260427T18Z_MSC_RDPS_AirTemp_IsbL-0350_RLatLon0.09_PT073H.grib2 2026-04-27 21:02 421K
20260427T18Z_MSC_RDPS_AirTemp_IsbL-0400_RLatLon0.09_PT073H.grib2 2026-04-27 21:02 389K
20260427T18Z_MSC_RDPS_AirTemp_IsbL-0450_RLatLon0.09_PT073H.grib2 2026-04-27 21:02 396K
20260427T18Z_MSC_RDPS_AirTemp_IsbL-0500_RLatLon0.09_PT073H.grib2 2026-04-27 21:02 405K
20260427T18Z_MSC_RDPS_AirTemp_IsbL-0550_RLatLon0.09_PT073H.grib2 2026-04-27 21:02 424K
20260427T18Z_MSC_RDPS_AirTemp_IsbL-0600_RLatLon0.09_PT073H.grib2 2026-04-27 21:02 445K
20260427T18Z_MSC_RDPS_AirTemp_IsbL-0650_RLatLon0.09_PT073H.grib2 2026-04-27 21:02 358K
20260427T18Z_MSC_RDPS_AirTemp_IsbL-0700_RLatLon0.09_PT073H.grib2 2026-04-27 21:02 379K
20260427T18Z_MSC_RDPS_AirTemp_IsbL-0750_RLatLon0.09_PT073H.grib2 2026-04-27 21:02 411K
20260427T18Z_MSC_RDPS_AirTemp_IsbL-0800_RLatLon0.09_PT073H.grib2 2026-04-27 21:02 450K
20260427T18Z_MSC_RDPS_AirTemp_IsbL-0850_RLatLon0.09_PT073H.grib2 2026-04-27 21:02 502K
20260427T18Z_MSC_RDPS_AirTemp_IsbL-0875_RLatLon0.09_PT073H.grib2 2026-04-27 21:02 525K
20260427T18Z_MSC_RDPS_AirTemp_IsbL-0900_RLatLon0.09_PT073H.grib2 2026-04-27 21:02 536K
20260427T18Z_MSC_RDPS_AirTemp_IsbL-0925_RLatLon0.09_PT073H.grib2 2026-04-27 21:02 535K
20260427T18Z_MSC_RDPS_AirTemp_IsbL-0950_RLatLon0.09_PT073H.grib2 2026-04-27 21:02 536K
20260427T18Z_MSC_RDPS_AirTemp_IsbL-0970_RLatLon0.09_PT073H.grib2 2026-04-27 21:02 529K
20260427T18Z_MSC_RDPS_AirTemp_IsbL-0985_RLatLon0.09_PT073H.grib2 2026-04-27 21:02 518K
20260427T18Z_MSC_RDPS_AirTemp_IsbL-1000_RLatLon0.09_PT073H.grib2 2026-04-27 21:02 518K
20260427T18Z_MSC_RDPS_AirTemp_IsbL-1015_RLatLon0.09_PT073H.grib2 2026-04-27 21:02 514K
20260427T18Z_MSC_RDPS_Albedo_Sfc_RLatLon0.09_PT073H.grib2 2026-04-27 21:02 159K
20260427T18Z_MSC_RDPS_CAPE_Sfc_RLatLon0.09_PT073H.grib2 2026-04-27 21:02 1.6M
20260427T18Z_MSC_RDPS_CIN_Sfc_RLatLon0.09_PT073H.grib2 2026-04-27 21:02 1.1M
20260427T18Z_MSC_RDPS_CloudWater_EAtm_RLatLon0.09_PT073H.grib2 2026-04-27 21:02 223K
20260427T18Z_MSC_RDPS_ConvectivePrecip-Accum_Sfc_RLatLon0.09_PT073H.grib2 2026-04-27 21:02 1.2M
20260427T18Z_MSC_RDPS_DewPointDepression_AGL-2m_RLatLon0.09_PT073H.grib2 2026-04-27 21:02 420K
20260427T18Z_MSC_RDPS_DewPointDepression_IsbL-0001_RLatLon0.09_PT073H.grib2 2026-04-27 21:02 193
20260427T18Z_MSC_RDPS_DewPointDepression_IsbL-0005_RLatLon0.09_PT073H.grib2 2026-04-27 21:02 193
20260427T18Z_MSC_RDPS_DewPointDepression_IsbL-0010_RLatLon0.09_PT073H.grib2 2026-04-27 21:02 193
20260427T18Z_MSC_RDPS_DewPointDepression_IsbL-0020_RLatLon0.09_PT073H.grib2 2026-04-27 21:02 193
20260427T18Z_MSC_RDPS_DewPointDepression_IsbL-0030_RLatLon0.09_PT073H.grib2 2026-04-27 21:02 193
20260427T18Z_MSC_RDPS_DewPointDepression_IsbL-0050_RLatLon0.09_PT073H.grib2 2026-04-27 21:02 83K
20260427T18Z_MSC_RDPS_DewPointDepression_IsbL-0100_RLatLon0.09_PT073H.grib2 2026-04-27 21:02 125K
20260427T18Z_MSC_RDPS_DewPointDepression_IsbL-0150_RLatLon0.09_PT073H.grib2 2026-04-27 21:02 147K
20260427T18Z_MSC_RDPS_DewPointDepression_IsbL-0175_RLatLon0.09_PT073H.grib2 2026-04-27 21:02 180K
20260427T18Z_MSC_RDPS_DewPointDepression_IsbL-0200_RLatLon0.09_PT073H.grib2 2026-04-27 21:02 219K
20260427T18Z_MSC_RDPS_DewPointDepression_IsbL-0225_RLatLon0.09_PT073H.grib2 2026-04-27 21:02 263K
20260427T18Z_MSC_RDPS_DewPointDepression_IsbL-0250_RLatLon0.09_PT073H.grib2 2026-04-27 21:02 301K
20260427T18Z_MSC_RDPS_DewPointDepression_IsbL-0275_RLatLon0.09_PT073H.grib2 2026-04-27 21:02 306K
20260427T18Z_MSC_RDPS_DewPointDepression_IsbL-0300_RLatLon0.09_PT073H.grib2 2026-04-27 21:02 325K
20260427T18Z_MSC_RDPS_DewPointDepression_IsbL-0350_RLatLon0.09_PT073H.grib2 2026-04-27 21:02 327K
20260427T18Z_MSC_RDPS_DewPointDepression_IsbL-0400_RLatLon0.09_PT073H.grib2 2026-04-27 21:02 337K
20260427T18Z_MSC_RDPS_DewPointDepression_IsbL-0450_RLatLon0.09_PT073H.grib2 2026-04-27 21:02 344K
20260427T18Z_MSC_RDPS_DewPointDepression_IsbL-0500_RLatLon0.09_PT073H.grib2 2026-04-27 21:02 352K
20260427T18Z_MSC_RDPS_DewPointDepression_IsbL-0550_RLatLon0.09_PT073H.grib2 2026-04-27 21:02 364K
20260427T18Z_MSC_RDPS_DewPointDepression_IsbL-0600_RLatLon0.09_PT073H.grib2 2026-04-27 21:02 380K
20260427T18Z_MSC_RDPS_DewPointDepression_IsbL-0650_RLatLon0.09_PT073H.grib2 2026-04-27 21:02 389K
20260427T18Z_MSC_RDPS_DewPointDepression_IsbL-0700_RLatLon0.09_PT073H.grib2 2026-04-27 21:02 400K
20260427T18Z_MSC_RDPS_DewPointDepression_IsbL-0750_RLatLon0.09_PT073H.grib2 2026-04-27 21:02 420K
20260427T18Z_MSC_RDPS_DewPointDepression_IsbL-0800_RLatLon0.09_PT073H.grib2 2026-04-27 21:02 448K
20260427T18Z_MSC_RDPS_DewPointDepression_IsbL-0850_RLatLon0.09_PT073H.grib2 2026-04-27 21:02 479K
20260427T18Z_MSC_RDPS_DewPointDepression_IsbL-0875_RLatLon0.09_PT073H.grib2 2026-04-27 21:02 483K
20260427T18Z_MSC_RDPS_DewPointDepression_IsbL-0900_RLatLon0.09_PT073H.grib2 2026-04-27 21:02 475K
20260427T18Z_MSC_RDPS_DewPointDepression_IsbL-0925_RLatLon0.09_PT073H.grib2 2026-04-27 21:02 458K
20260427T18Z_MSC_RDPS_DewPointDepression_IsbL-0950_RLatLon0.09_PT073H.grib2 2026-04-27 21:02 449K
20260427T18Z_MSC_RDPS_DewPointDepression_IsbL-0970_RLatLon0.09_PT073H.grib2 2026-04-27 21:02 439K
20260427T18Z_MSC_RDPS_DewPointDepression_IsbL-0985_RLatLon0.09_PT073H.grib2 2026-04-27 21:02 436K
20260427T18Z_MSC_RDPS_DewPointDepression_IsbL-1000_RLatLon0.09_PT073H.grib2 2026-04-27 21:02 432K
20260427T18Z_MSC_RDPS_DewPointDepression_IsbL-1015_RLatLon0.09_PT073H.grib2 2026-04-27 21:02 423K
20260427T18Z_MSC_RDPS_DewPoint_AGL-2m_RLatLon0.09_PT073H.grib2 2026-04-27 21:02 401K
20260427T18Z_MSC_RDPS_DownwardLongwaveRadiationFlux-Accum_Sfc_RLatLon0.09_PT073H.grib2 2026-04-27 21:02 425K
20260427T18Z_MSC_RDPS_DownwardShortwaveRadiationFlux-Accum_NTAtm_RLatLon0.09_PT073H.grib2 2026-04-27 21:02 160K
20260427T18Z_MSC_RDPS_DownwardShortwaveRadiationFlux-Accum_Sfc_RLatLon0.09_PT073H.grib2 2026-04-27 21:02 622K
20260427T18Z_MSC_RDPS_FreezingRain-Accum1h_Sfc_RLatLon0.09_PT073H.grib2 2026-04-27 21:02 11K
20260427T18Z_MSC_RDPS_FreezingRain-Accum_Sfc_RLatLon0.09_PT073H.grib2 2026-04-27 21:02 211K
20260427T18Z_MSC_RDPS_GeopotentialHeight_IsbL-0001_RLatLon0.09_PT073H.grib2 2026-04-27 21:02 323K
20260427T18Z_MSC_RDPS_GeopotentialHeight_IsbL-0005_RLatLon0.09_PT073H.grib2 2026-04-27 21:02 340K
20260427T18Z_MSC_RDPS_GeopotentialHeight_IsbL-0010_RLatLon0.09_PT073H.grib2 2026-04-27 21:02 341K
20260427T18Z_MSC_RDPS_GeopotentialHeight_IsbL-0020_RLatLon0.09_PT073H.grib2 2026-04-27 21:02 307K
20260427T18Z_MSC_RDPS_GeopotentialHeight_IsbL-0030_RLatLon0.09_PT073H.grib2 2026-04-27 21:02 309K
20260427T18Z_MSC_RDPS_GeopotentialHeight_IsbL-0050_RLatLon0.09_PT073H.grib2 2026-04-27 21:02 343K
20260427T18Z_MSC_RDPS_GeopotentialHeight_IsbL-0100_RLatLon0.09_PT073H.grib2 2026-04-27 21:02 285K
20260427T18Z_MSC_RDPS_GeopotentialHeight_IsbL-0150_RLatLon0.09_PT073H.grib2 2026-04-27 21:02 229K
20260427T18Z_MSC_RDPS_GeopotentialHeight_IsbL-0175_RLatLon0.09_PT073H.grib2 2026-04-27 21:02 263K
20260427T18Z_MSC_RDPS_GeopotentialHeight_IsbL-0200_RLatLon0.09_PT073H.grib2 2026-04-27 21:02 265K
20260427T18Z_MSC_RDPS_GeopotentialHeight_IsbL-0225_RLatLon0.09_PT073H.grib2 2026-04-27 21:02 266K
20260427T18Z_MSC_RDPS_GeopotentialHeight_IsbL-0250_RLatLon0.09_PT073H.grib2 2026-04-27 21:02 267K
20260427T18Z_MSC_RDPS_GeopotentialHeight_IsbL-0275_RLatLon0.09_PT073H.grib2 2026-04-27 21:02 266K
20260427T18Z_MSC_RDPS_GeopotentialHeight_IsbL-0300_RLatLon0.09_PT073H.grib2 2026-04-27 21:02 265K
20260427T18Z_MSC_RDPS_GeopotentialHeight_IsbL-0350_RLatLon0.09_PT073H.grib2 2026-04-27 21:02 231K
20260427T18Z_MSC_RDPS_GeopotentialHeight_IsbL-0400_RLatLon0.09_PT073H.grib2 2026-04-27 21:02 228K
20260427T18Z_MSC_RDPS_GeopotentialHeight_IsbL-0450_RLatLon0.09_PT073H.grib2 2026-04-27 21:02 295K
20260427T18Z_MSC_RDPS_GeopotentialHeight_IsbL-0500_RLatLon0.09_PT073H.grib2 2026-04-27 21:02 290K
20260427T18Z_MSC_RDPS_GeopotentialHeight_IsbL-0550_RLatLon0.09_PT073H.grib2 2026-04-27 21:02 287K
20260427T18Z_MSC_RDPS_GeopotentialHeight_IsbL-0600_RLatLon0.09_PT073H.grib2 2026-04-27 21:02 256K
20260427T18Z_MSC_RDPS_GeopotentialHeight_IsbL-0650_RLatLon0.09_PT073H.grib2 2026-04-27 21:02 254K
20260427T18Z_MSC_RDPS_GeopotentialHeight_IsbL-0700_RLatLon0.09_PT073H.grib2 2026-04-27 21:02 336K
20260427T18Z_MSC_RDPS_GeopotentialHeight_IsbL-0750_RLatLon0.09_PT073H.grib2 2026-04-27 21:02 338K
20260427T18Z_MSC_RDPS_GeopotentialHeight_IsbL-0800_RLatLon0.09_PT073H.grib2 2026-04-27 21:02 378K
20260427T18Z_MSC_RDPS_GeopotentialHeight_IsbL-0850_RLatLon0.09_PT073H.grib2 2026-04-27 21:02 388K
20260427T18Z_MSC_RDPS_GeopotentialHeight_IsbL-0875_RLatLon0.09_PT073H.grib2 2026-04-27 21:02 392K
20260427T18Z_MSC_RDPS_GeopotentialHeight_IsbL-0900_RLatLon0.09_PT073H.grib2 2026-04-27 21:02 396K
20260427T18Z_MSC_RDPS_GeopotentialHeight_IsbL-0925_RLatLon0.09_PT073H.grib2 2026-04-27 21:02 398K
20260427T18Z_MSC_RDPS_GeopotentialHeight_IsbL-0950_RLatLon0.09_PT073H.grib2 2026-04-27 21:02 402K
20260427T18Z_MSC_RDPS_GeopotentialHeight_IsbL-0970_RLatLon0.09_PT073H.grib2 2026-04-27 21:02 410K
20260427T18Z_MSC_RDPS_GeopotentialHeight_IsbL-0985_RLatLon0.09_PT073H.grib2 2026-04-27 21:02 420K
20260427T18Z_MSC_RDPS_GeopotentialHeight_IsbL-1000_RLatLon0.09_PT073H.grib2 2026-04-27 21:02 433K
20260427T18Z_MSC_RDPS_GeopotentialHeight_IsbL-1015_RLatLon0.09_PT073H.grib2 2026-04-27 21:02 450K
20260427T18Z_MSC_RDPS_Humidex_Sfc_RLatLon0.09_PT073H.grib2 2026-04-27 21:02 2.4M
20260427T18Z_MSC_RDPS_IcePellets-Accum1h_Sfc_RLatLon0.09_PT073H.grib2 2026-04-27 21:02 3.4K
20260427T18Z_MSC_RDPS_IcePellets-Accum_Sfc_RLatLon0.09_PT073H.grib2 2026-04-27 21:02 37K
20260427T18Z_MSC_RDPS_KIndex_Sfc_RLatLon0.09_PT073H.grib2 2026-04-27 21:02 2.5M
20260427T18Z_MSC_RDPS_LatentHeatNetFlux_Sfc_RLatLon0.09_PT073H.grib2 2026-04-27 21:02 302K
20260427T18Z_MSC_RDPS_LiftedIndex-MU-VT_IsbL-0500_RLatLon0.09_PT073H.grib2 2026-04-27 21:02 2.4M
20260427T18Z_MSC_RDPS_NetLongwaveRadiationFlux-Accum_Sfc_RLatLon0.09_PT073H.grib2 2026-04-27 21:02 470K
20260427T18Z_MSC_RDPS_NetShortwaveRadiationFlux-Accum_Sfc_RLatLon0.09_PT073H.grib2 2026-04-27 21:02 626K
20260427T18Z_MSC_RDPS_PlanetaryBoundaryLayerHeight_Sfc_RLatLon0.09_PT073H.grib2 2026-04-27 21:02 1.0M
20260427T18Z_MSC_RDPS_Precip-Accum1h_Sfc_RLatLon0.09_PT073H.grib2 2026-04-27 21:02 1.2M
20260427T18Z_MSC_RDPS_Precip-Accum_Sfc_RLatLon0.09_PT073H.grib2 2026-04-27 21:02 2.0M
20260427T18Z_MSC_RDPS_PrecipRate_Sfc_RLatLon0.09_PT073H.grib2 2026-04-27 21:02 161K
20260427T18Z_MSC_RDPS_PrecipType-Instant_Sfc_RLatLon0.09_PT073H.grib2 2026-04-27 21:02 561K
20260427T18Z_MSC_RDPS_Pressure-Trend3h_Sfc_RLatLon0.09_PT073H.grib2 2026-04-27 21:02 1.2M
20260427T18Z_MSC_RDPS_Pressure_MSL_RLatLon0.09_PT073H.grib2 2026-04-27 21:02 298K
20260427T18Z_MSC_RDPS_Pressure_PVU-1.5_RLatLon0.09_PT073H.grib2 2026-04-27 21:02 2.5M
20260427T18Z_MSC_RDPS_Pressure_PVU-1_RLatLon0.09_PT073H.grib2 2026-04-27 21:02 2.4M
20260427T18Z_MSC_RDPS_Pressure_PVU-2_RLatLon0.09_PT073H.grib2 2026-04-27 21:02 2.4M
20260427T18Z_MSC_RDPS_Pressure_Sfc_RLatLon0.09_PT073H.grib2 2026-04-27 21:02 499K
20260427T18Z_MSC_RDPS_RadiativeTemp_Sfc_RLatLon0.09_PT073H.grib2 2026-04-27 21:02 330K
20260427T18Z_MSC_RDPS_Rain-Accum1h_Sfc_RLatLon0.09_PT073H.grib2 2026-04-27 21:02 585K
20260427T18Z_MSC_RDPS_Rain-Accum_Sfc_RLatLon0.09_PT073H.grib2 2026-04-27 21:02 1.6M
20260427T18Z_MSC_RDPS_RelativeHumidity_AGL-2m_RLatLon0.09_PT073H.grib2 2026-04-27 21:02 1.0M
20260427T18Z_MSC_RDPS_RelativeHumidity_IsbL-0010_RLatLon0.09_PT073H.grib2 2026-04-27 21:02 623K
20260427T18Z_MSC_RDPS_RelativeHumidity_IsbL-0020_RLatLon0.09_PT073H.grib2 2026-04-27 21:02 669K
20260427T18Z_MSC_RDPS_RelativeHumidity_IsbL-0030_RLatLon0.09_PT073H.grib2 2026-04-27 21:02 605K
20260427T18Z_MSC_RDPS_RelativeHumidity_IsbL-0050_RLatLon0.09_PT073H.grib2 2026-04-27 21:02 319K
20260427T18Z_MSC_RDPS_RelativeHumidity_IsbL-0100_RLatLon0.09_PT073H.grib2 2026-04-27 21:02 275K
20260427T18Z_MSC_RDPS_RelativeHumidity_IsbL-0150_RLatLon0.09_PT073H.grib2 2026-04-27 21:02 407K
20260427T18Z_MSC_RDPS_RelativeHumidity_IsbL-0175_RLatLon0.09_PT073H.grib2 2026-04-27 21:02 477K
20260427T18Z_MSC_RDPS_RelativeHumidity_IsbL-0200_RLatLon0.09_PT073H.grib2 2026-04-27 21:02 554K
20260427T18Z_MSC_RDPS_RelativeHumidity_IsbL-0225_RLatLon0.09_PT073H.grib2 2026-04-27 21:02 624K
20260427T18Z_MSC_RDPS_RelativeHumidity_IsbL-0250_RLatLon0.09_PT073H.grib2 2026-04-27 21:02 697K
20260427T18Z_MSC_RDPS_RelativeHumidity_IsbL-0275_RLatLon0.09_PT073H.grib2 2026-04-27 21:02 724K
20260427T18Z_MSC_RDPS_RelativeHumidity_IsbL-0300_RLatLon0.09_PT073H.grib2 2026-04-27 21:02 769K
20260427T18Z_MSC_RDPS_RelativeHumidity_IsbL-0350_RLatLon0.09_PT073H.grib2 2026-04-27 21:02 782K
20260427T18Z_MSC_RDPS_RelativeHumidity_IsbL-0400_RLatLon0.09_PT073H.grib2 2026-04-27 21:02 793K
20260427T18Z_MSC_RDPS_RelativeHumidity_IsbL-0450_RLatLon0.09_PT073H.grib2 2026-04-27 21:02 797K
20260427T18Z_MSC_RDPS_RelativeHumidity_IsbL-0500_RLatLon0.09_PT073H.grib2 2026-04-27 21:02 803K
20260427T18Z_MSC_RDPS_RelativeHumidity_IsbL-0550_RLatLon0.09_PT073H.grib2 2026-04-27 21:02 821K
20260427T18Z_MSC_RDPS_RelativeHumidity_IsbL-0600_RLatLon0.09_PT073H.grib2 2026-04-27 21:02 848K
20260427T18Z_MSC_RDPS_RelativeHumidity_IsbL-0650_RLatLon0.09_PT073H.grib2 2026-04-27 21:02 866K
20260427T18Z_MSC_RDPS_RelativeHumidity_IsbL-0700_RLatLon0.09_PT073H.grib2 2026-04-27 21:02 889K
20260427T18Z_MSC_RDPS_RelativeHumidity_IsbL-0750_RLatLon0.09_PT073H.grib2 2026-04-27 21:02 937K
20260427T18Z_MSC_RDPS_RelativeHumidity_IsbL-0800_RLatLon0.09_PT073H.grib2 2026-04-27 21:02 1.0M
20260427T18Z_MSC_RDPS_RelativeHumidity_IsbL-0850_RLatLon0.09_PT073H.grib2 2026-04-27 21:02 1.0M
20260427T18Z_MSC_RDPS_RelativeHumidity_IsbL-0875_RLatLon0.09_PT073H.grib2 2026-04-27 21:02 1.1M
20260427T18Z_MSC_RDPS_RelativeHumidity_IsbL-0900_RLatLon0.09_PT073H.grib2 2026-04-27 21:02 1.1M
20260427T18Z_MSC_RDPS_RelativeHumidity_IsbL-0925_RLatLon0.09_PT073H.grib2 2026-04-27 21:02 1.1M
20260427T18Z_MSC_RDPS_RelativeHumidity_IsbL-0950_RLatLon0.09_PT073H.grib2 2026-04-27 21:02 1.1M
20260427T18Z_MSC_RDPS_RelativeHumidity_IsbL-0970_RLatLon0.09_PT073H.grib2 2026-04-27 21:02 1.1M
20260427T18Z_MSC_RDPS_RelativeHumidity_IsbL-0985_RLatLon0.09_PT073H.grib2 2026-04-27 21:02 1.0M
20260427T18Z_MSC_RDPS_RelativeHumidity_IsbL-1000_RLatLon0.09_PT073H.grib2 2026-04-27 21:02 1.0M
20260427T18Z_MSC_RDPS_RelativeHumidity_IsbL-1015_RLatLon0.09_PT073H.grib2 2026-04-27 21:02 1.0M
20260427T18Z_MSC_RDPS_Runoff-Accum_Sfc_RLatLon0.09_PT073H.grib2 2026-04-27 21:02 63K
20260427T18Z_MSC_RDPS_SWEATIndex_Sfc_RLatLon0.09_PT073H.grib2 2026-04-27 21:02 2.4M
20260427T18Z_MSC_RDPS_SeeingIndex_EAtm_RLatLon0.09_PT073H.grib2 2026-04-27 21:02 1.0M
20260427T18Z_MSC_RDPS_SensibleHeatNetFlux_Sfc_RLatLon0.09_PT073H.grib2 2026-04-27 21:02 360K
20260427T18Z_MSC_RDPS_ShowalterIndex_IsbL-0500_RLatLon0.09_PT073H.grib2 2026-04-27 21:02 2.6M
20260427T18Z_MSC_RDPS_SkyTransparencyIndex_EAtm_RLatLon0.09_PT073H.grib2 2026-04-27 21:02 692K
20260427T18Z_MSC_RDPS_Snow-Accum1h_Sfc_RLatLon0.09_PT073H.grib2 2026-04-27 21:02 491K
20260427T18Z_MSC_RDPS_Snow-Accum_Sfc_RLatLon0.09_PT073H.grib2 2026-04-27 21:02 823K
20260427T18Z_MSC_RDPS_SnowDensity_Sfc_RLatLon0.09_PT073H.grib2 2026-04-27 21:02 184K
20260427T18Z_MSC_RDPS_SnowDepth_Sfc_RLatLon0.09_PT073H.grib2 2026-04-27 21:02 689K
20260427T18Z_MSC_RDPS_SoilTemp_DBS-0to10cm_RLatLon0.09_PT073H.grib2 2026-04-27 21:02 243K
20260427T18Z_MSC_RDPS_SoilTemp_Sfc_RLatLon0.09_PT073H.grib2 2026-04-27 21:02 295K
20260427T18Z_MSC_RDPS_SoilVolumetricIceContent_Sfc_RLatLon0.09_PT073H.grib2 2026-04-27 21:02 164K
20260427T18Z_MSC_RDPS_SoilVolumetricWaterContent_DBS-0to10cm_RLatLon0.09_PT073H.grib2 2026-04-27 21:02 268K
20260427T18Z_MSC_RDPS_SoilVolumetricWaterContent_DBS-0to1cm_RLatLon0.09_PT073H.grib2 2026-04-27 21:02 338K
20260427T18Z_MSC_RDPS_SpecificHumidity_AGL-120m_RLatLon0.09_PT073H.grib2 2026-04-27 21:02 499K
20260427T18Z_MSC_RDPS_SpecificHumidity_AGL-2m_RLatLon0.09_PT073H.grib2 2026-04-27 21:02 667K
20260427T18Z_MSC_RDPS_SpecificHumidity_AGL-40m_RLatLon0.09_PT073H.grib2 2026-04-27 21:02 504K
20260427T18Z_MSC_RDPS_SpecificHumidity_AGL-80m_RLatLon0.09_PT073H.grib2 2026-04-27 21:02 500K
20260427T18Z_MSC_RDPS_SpecificHumidity_IsbL-0001_RLatLon0.09_PT073H.grib2 2026-04-27 21:02 365K
20260427T18Z_MSC_RDPS_SpecificHumidity_IsbL-0005_RLatLon0.09_PT073H.grib2 2026-04-27 21:02 353K
20260427T18Z_MSC_RDPS_SpecificHumidity_IsbL-0010_RLatLon0.09_PT073H.grib2 2026-04-27 21:02 391K
20260427T18Z_MSC_RDPS_SpecificHumidity_IsbL-0020_RLatLon0.09_PT073H.grib2 2026-04-27 21:02 376K
20260427T18Z_MSC_RDPS_SpecificHumidity_IsbL-0030_RLatLon0.09_PT073H.grib2 2026-04-27 21:02 467K
20260427T18Z_MSC_RDPS_SpecificHumidity_IsbL-0050_RLatLon0.09_PT073H.grib2 2026-04-27 21:02 445K
20260427T18Z_MSC_RDPS_SpecificHumidity_IsbL-0100_RLatLon0.09_PT073H.grib2 2026-04-27 21:02 439K
20260427T18Z_MSC_RDPS_SpecificHumidity_IsbL-0150_RLatLon0.09_PT073H.grib2 2026-04-27 21:02 451K
20260427T18Z_MSC_RDPS_SpecificHumidity_IsbL-0175_RLatLon0.09_PT073H.grib2 2026-04-27 21:02 434K
20260427T18Z_MSC_RDPS_SpecificHumidity_IsbL-0200_RLatLon0.09_PT073H.grib2 2026-04-27 21:02 450K
20260427T18Z_MSC_RDPS_SpecificHumidity_IsbL-0225_RLatLon0.09_PT073H.grib2 2026-04-27 21:02 454K
20260427T18Z_MSC_RDPS_SpecificHumidity_IsbL-0250_RLatLon0.09_PT073H.grib2 2026-04-27 21:02 514K
20260427T18Z_MSC_RDPS_SpecificHumidity_IsbL-0275_RLatLon0.09_PT073H.grib2 2026-04-27 21:02 475K
20260427T18Z_MSC_RDPS_SpecificHumidity_IsbL-0300_RLatLon0.09_PT073H.grib2 2026-04-27 21:02 449K
20260427T18Z_MSC_RDPS_SpecificHumidity_IsbL-0350_RLatLon0.09_PT073H.grib2 2026-04-27 21:02 439K
20260427T18Z_MSC_RDPS_SpecificHumidity_IsbL-0400_RLatLon0.09_PT073H.grib2 2026-04-27 21:02 544K
20260427T18Z_MSC_RDPS_SpecificHumidity_IsbL-0450_RLatLon0.09_PT073H.grib2 2026-04-27 21:02 452K
20260427T18Z_MSC_RDPS_SpecificHumidity_IsbL-0500_RLatLon0.09_PT073H.grib2 2026-04-27 21:02 505K
20260427T18Z_MSC_RDPS_SpecificHumidity_IsbL-0550_RLatLon0.09_PT073H.grib2 2026-04-27 21:02 580K
20260427T18Z_MSC_RDPS_SpecificHumidity_IsbL-0600_RLatLon0.09_PT073H.grib2 2026-04-27 21:02 640K
20260427T18Z_MSC_RDPS_SpecificHumidity_IsbL-0650_RLatLon0.09_PT073H.grib2 2026-04-27 21:02 560K
20260427T18Z_MSC_RDPS_SpecificHumidity_IsbL-0700_RLatLon0.09_PT073H.grib2 2026-04-27 21:02 603K
20260427T18Z_MSC_RDPS_SpecificHumidity_IsbL-0750_RLatLon0.09_PT073H.grib2 2026-04-27 21:02 659K
20260427T18Z_MSC_RDPS_SpecificHumidity_IsbL-0800_RLatLon0.09_PT073H.grib2 2026-04-27 21:02 736K
20260427T18Z_MSC_RDPS_SpecificHumidity_IsbL-0850_RLatLon0.09_PT073H.grib2 2026-04-27 21:02 810K
20260427T18Z_MSC_RDPS_SpecificHumidity_IsbL-0875_RLatLon0.09_PT073H.grib2 2026-04-27 21:02 838K
20260427T18Z_MSC_RDPS_SpecificHumidity_IsbL-0900_RLatLon0.09_PT073H.grib2 2026-04-27 21:02 713K
20260427T18Z_MSC_RDPS_SpecificHumidity_IsbL-0925_RLatLon0.09_PT073H.grib2 2026-04-27 21:02 713K
20260427T18Z_MSC_RDPS_SpecificHumidity_IsbL-0950_RLatLon0.09_PT073H.grib2 2026-04-27 21:02 713K
20260427T18Z_MSC_RDPS_SpecificHumidity_IsbL-0970_RLatLon0.09_PT073H.grib2 2026-04-27 21:02 702K
20260427T18Z_MSC_RDPS_SpecificHumidity_IsbL-0985_RLatLon0.09_PT073H.grib2 2026-04-27 21:02 694K
20260427T18Z_MSC_RDPS_SpecificHumidity_IsbL-1000_RLatLon0.09_PT073H.grib2 2026-04-27 21:02 687K
20260427T18Z_MSC_RDPS_SpecificHumidity_IsbL-1015_RLatLon0.09_PT073H.grib2 2026-04-27 21:02 677K
20260427T18Z_MSC_RDPS_SpecificHumidity_Sfc_RLatLon0.09_PT073H.grib2 2026-04-27 21:02 341K
20260427T18Z_MSC_RDPS_StormRelativeHelicity_EtaL-10000_RLatLon0.09_PT073H.grib2 2026-04-27 21:02 1.1M
20260427T18Z_MSC_RDPS_StormSeverityIndex_EtaL-10000_RLatLon0.09_PT073H.grib2 2026-04-27 21:02 1.2M
20260427T18Z_MSC_RDPS_Thickness_IsbL-0850to0700_RLatLon0.09_PT073H.grib2 2026-04-27 21:02 178K
20260427T18Z_MSC_RDPS_Thickness_IsbL-1000to0500_RLatLon0.09_PT073H.grib2 2026-04-27 21:02 200K
20260427T18Z_MSC_RDPS_Thickness_IsbL-1000to0850_RLatLon0.09_PT073H.grib2 2026-04-27 21:02 190K
20260427T18Z_MSC_RDPS_TotalCloudCover_Sfc_RLatLon0.09_PT073H.grib2 2026-04-27 21:02 654K
20260427T18Z_MSC_RDPS_TotalTotalsIndex_Sfc_RLatLon0.09_PT073H.grib2 2026-04-27 21:02 2.4M
20260427T18Z_MSC_RDPS_UVIndex-ClearSky_Sfc_RLatLon0.09_PT073H.grib2 2026-04-27 21:02 226K
20260427T18Z_MSC_RDPS_UVIndex_Sfc_RLatLon0.09_PT073H.grib2 2026-04-27 21:02 525K
20260427T18Z_MSC_RDPS_UpwardLongwaveRadiationFlux_NTAtm_RLatLon0.09_PT073H.grib2 2026-04-27 21:02 385K
20260427T18Z_MSC_RDPS_UpwardShortwaveRadiationFlux_NTAtm_RLatLon0.09_PT073H.grib2 2026-04-27 21:02 554K
20260427T18Z_MSC_RDPS_VerticalVelocity_IsbL-0250_RLatLon0.09_PT073H.grib2 2026-04-27 21:02 551K
20260427T18Z_MSC_RDPS_VerticalVelocity_IsbL-0500_RLatLon0.09_PT073H.grib2 2026-04-27 21:02 544K
20260427T18Z_MSC_RDPS_VerticalVelocity_IsbL-0700_RLatLon0.09_PT073H.grib2 2026-04-27 21:02 595K
20260427T18Z_MSC_RDPS_VerticalVelocity_IsbL-0850_RLatLon0.09_PT073H.grib2 2026-04-27 21:02 532K
20260427T18Z_MSC_RDPS_VerticalWindShear_EtaL-6500_RLatLon0.09_PT073H.grib2 2026-04-27 21:02 1.2M
20260427T18Z_MSC_RDPS_WindChill_Sfc_RLatLon0.09_PT073H.grib2 2026-04-27 21:02 1.1M
20260427T18Z_MSC_RDPS_WindDir_AGL-10m_RLatLon0.09_PT073H.grib2 2026-04-27 21:02 1.0M
20260427T18Z_MSC_RDPS_WindDir_AGL-120m_RLatLon0.09_PT073H.grib2 2026-04-27 21:02 625K
20260427T18Z_MSC_RDPS_WindDir_AGL-40m_RLatLon0.09_PT073H.grib2 2026-04-27 21:02 646K
20260427T18Z_MSC_RDPS_WindDir_AGL-80m_RLatLon0.09_PT073H.grib2 2026-04-27 21:02 633K
20260427T18Z_MSC_RDPS_WindDir_IsbL-0001_RLatLon0.09_PT073H.grib2 2026-04-27 21:02 289K
20260427T18Z_MSC_RDPS_WindDir_IsbL-0005_RLatLon0.09_PT073H.grib2 2026-04-27 21:02 366K
20260427T18Z_MSC_RDPS_WindDir_IsbL-0010_RLatLon0.09_PT073H.grib2 2026-04-27 21:02 381K
20260427T18Z_MSC_RDPS_WindDir_IsbL-0020_RLatLon0.09_PT073H.grib2 2026-04-27 21:02 415K
20260427T18Z_MSC_RDPS_WindDir_IsbL-0030_RLatLon0.09_PT073H.grib2 2026-04-27 21:02 408K
20260427T18Z_MSC_RDPS_WindDir_IsbL-0050_RLatLon0.09_PT073H.grib2 2026-04-27 21:02 426K
20260427T18Z_MSC_RDPS_WindDir_IsbL-0100_RLatLon0.09_PT073H.grib2 2026-04-27 21:02 433K
20260427T18Z_MSC_RDPS_WindDir_IsbL-0150_RLatLon0.09_PT073H.grib2 2026-04-27 21:02 418K
20260427T18Z_MSC_RDPS_WindDir_IsbL-0175_RLatLon0.09_PT073H.grib2 2026-04-27 21:02 444K
20260427T18Z_MSC_RDPS_WindDir_IsbL-0200_RLatLon0.09_PT073H.grib2 2026-04-27 21:02 459K
20260427T18Z_MSC_RDPS_WindDir_IsbL-0225_RLatLon0.09_PT073H.grib2 2026-04-27 21:02 461K
20260427T18Z_MSC_RDPS_WindDir_IsbL-0250_RLatLon0.09_PT073H.grib2 2026-04-27 21:02 459K
20260427T18Z_MSC_RDPS_WindDir_IsbL-0275_RLatLon0.09_PT073H.grib2 2026-04-27 21:02 484K
20260427T18Z_MSC_RDPS_WindDir_IsbL-0300_RLatLon0.09_PT073H.grib2 2026-04-27 21:02 481K
20260427T18Z_MSC_RDPS_WindDir_IsbL-0350_RLatLon0.09_PT073H.grib2 2026-04-27 21:02 500K
20260427T18Z_MSC_RDPS_WindDir_IsbL-0400_RLatLon0.09_PT073H.grib2 2026-04-27 21:02 508K
20260427T18Z_MSC_RDPS_WindDir_IsbL-0450_RLatLon0.09_PT073H.grib2 2026-04-27 21:02 517K
20260427T18Z_MSC_RDPS_WindDir_IsbL-0500_RLatLon0.09_PT073H.grib2 2026-04-27 21:02 531K
20260427T18Z_MSC_RDPS_WindDir_IsbL-0550_RLatLon0.09_PT073H.grib2 2026-04-27 21:02 555K
20260427T18Z_MSC_RDPS_WindDir_IsbL-0600_RLatLon0.09_PT073H.grib2 2026-04-27 21:02 589K
20260427T18Z_MSC_RDPS_WindDir_IsbL-0650_RLatLon0.09_PT073H.grib2 2026-04-27 21:02 635K
20260427T18Z_MSC_RDPS_WindDir_IsbL-0700_RLatLon0.09_PT073H.grib2 2026-04-27 21:02 685K
20260427T18Z_MSC_RDPS_WindDir_IsbL-0750_RLatLon0.09_PT073H.grib2 2026-04-27 21:02 734K
20260427T18Z_MSC_RDPS_WindDir_IsbL-0800_RLatLon0.09_PT073H.grib2 2026-04-27 21:02 794K
20260427T18Z_MSC_RDPS_WindDir_IsbL-0850_RLatLon0.09_PT073H.grib2 2026-04-27 21:02 866K
20260427T18Z_MSC_RDPS_WindDir_IsbL-0875_RLatLon0.09_PT073H.grib2 2026-04-27 21:02 894K
20260427T18Z_MSC_RDPS_WindDir_IsbL-0900_RLatLon0.09_PT073H.grib2 2026-04-27 21:02 915K
20260427T18Z_MSC_RDPS_WindDir_IsbL-0925_RLatLon0.09_PT073H.grib2 2026-04-27 21:02 926K
20260427T18Z_MSC_RDPS_WindDir_IsbL-0950_RLatLon0.09_PT073H.grib2 2026-04-27 21:02 926K
20260427T18Z_MSC_RDPS_WindDir_IsbL-0970_RLatLon0.09_PT073H.grib2 2026-04-27 21:02 935K
20260427T18Z_MSC_RDPS_WindDir_IsbL-0985_RLatLon0.09_PT073H.grib2 2026-04-27 21:02 943K
20260427T18Z_MSC_RDPS_WindDir_IsbL-1000_RLatLon0.09_PT073H.grib2 2026-04-27 21:02 956K
20260427T18Z_MSC_RDPS_WindDir_IsbL-1015_RLatLon0.09_PT073H.grib2 2026-04-27 21:02 970K
20260427T18Z_MSC_RDPS_WindGust-Max_AGL-10m_RLatLon0.09_PT073H.grib2 2026-04-27 21:02 1.0M
20260427T18Z_MSC_RDPS_WindGust-Min_AGL-10m_RLatLon0.09_PT073H.grib2 2026-04-27 21:02 968K
20260427T18Z_MSC_RDPS_WindGust_AGL-10m_RLatLon0.09_PT073H.grib2 2026-04-27 21:02 1.0M
20260427T18Z_MSC_RDPS_WindSpeed_AGL-10m_RLatLon0.09_PT073H.grib2 2026-04-27 21:02 834K
20260427T18Z_MSC_RDPS_WindSpeed_AGL-120m_RLatLon0.09_PT073H.grib2 2026-04-27 21:02 545K
20260427T18Z_MSC_RDPS_WindSpeed_AGL-40m_RLatLon0.09_PT073H.grib2 2026-04-27 21:02 535K
20260427T18Z_MSC_RDPS_WindSpeed_AGL-80m_RLatLon0.09_PT073H.grib2 2026-04-27 21:02 545K
20260427T18Z_MSC_RDPS_WindSpeed_IsbL-0001_RLatLon0.09_PT073H.grib2 2026-04-27 21:02 336K
20260427T18Z_MSC_RDPS_WindSpeed_IsbL-0005_RLatLon0.09_PT073H.grib2 2026-04-27 21:02 386K
20260427T18Z_MSC_RDPS_WindSpeed_IsbL-0010_RLatLon0.09_PT073H.grib2 2026-04-27 21:02 403K
20260427T18Z_MSC_RDPS_WindSpeed_IsbL-0020_RLatLon0.09_PT073H.grib2 2026-04-27 21:02 329K
20260427T18Z_MSC_RDPS_WindSpeed_IsbL-0030_RLatLon0.09_PT073H.grib2 2026-04-27 21:02 328K
20260427T18Z_MSC_RDPS_WindSpeed_IsbL-0050_RLatLon0.09_PT073H.grib2 2026-04-27 21:02 350K
20260427T18Z_MSC_RDPS_WindSpeed_IsbL-0100_RLatLon0.09_PT073H.grib2 2026-04-27 21:02 475K
20260427T18Z_MSC_RDPS_WindSpeed_IsbL-0150_RLatLon0.09_PT073H.grib2 2026-04-27 21:02 381K
20260427T18Z_MSC_RDPS_WindSpeed_IsbL-0175_RLatLon0.09_PT073H.grib2 2026-04-27 21:02 426K
20260427T18Z_MSC_RDPS_WindSpeed_IsbL-0200_RLatLon0.09_PT073H.grib2 2026-04-27 21:02 443K
20260427T18Z_MSC_RDPS_WindSpeed_IsbL-0225_RLatLon0.09_PT073H.grib2 2026-04-27 21:02 451K
20260427T18Z_MSC_RDPS_WindSpeed_IsbL-0250_RLatLon0.09_PT073H.grib2 2026-04-27 21:02 454K
20260427T18Z_MSC_RDPS_WindSpeed_IsbL-0275_RLatLon0.09_PT073H.grib2 2026-04-27 21:02 472K
20260427T18Z_MSC_RDPS_WindSpeed_IsbL-0300_RLatLon0.09_PT073H.grib2 2026-04-27 21:02 468K
20260427T18Z_MSC_RDPS_WindSpeed_IsbL-0350_RLatLon0.09_PT073H.grib2 2026-04-27 21:02 479K
20260427T18Z_MSC_RDPS_WindSpeed_IsbL-0400_RLatLon0.09_PT073H.grib2 2026-04-27 21:02 464K
20260427T18Z_MSC_RDPS_WindSpeed_IsbL-0450_RLatLon0.09_PT073H.grib2 2026-04-27 21:02 464K
20260427T18Z_MSC_RDPS_WindSpeed_IsbL-0500_RLatLon0.09_PT073H.grib2 2026-04-27 21:02 464K
20260427T18Z_MSC_RDPS_WindSpeed_IsbL-0550_RLatLon0.09_PT073H.grib2 2026-04-27 21:02 464K
20260427T18Z_MSC_RDPS_WindSpeed_IsbL-0600_RLatLon0.09_PT073H.grib2 2026-04-27 21:02 474K
20260427T18Z_MSC_RDPS_WindSpeed_IsbL-0650_RLatLon0.09_PT073H.grib2 2026-04-27 21:02 613K
20260427T18Z_MSC_RDPS_WindSpeed_IsbL-0700_RLatLon0.09_PT073H.grib2 2026-04-27 21:02 639K
20260427T18Z_MSC_RDPS_WindSpeed_IsbL-0750_RLatLon0.09_PT073H.grib2 2026-04-27 21:02 711K
20260427T18Z_MSC_RDPS_WindSpeed_IsbL-0800_RLatLon0.09_PT073H.grib2 2026-04-27 21:02 753K
20260427T18Z_MSC_RDPS_WindSpeed_IsbL-0850_RLatLon0.09_PT073H.grib2 2026-04-27 21:02 810K
20260427T18Z_MSC_RDPS_WindSpeed_IsbL-0875_RLatLon0.09_PT073H.grib2 2026-04-27 21:02 832K
20260427T18Z_MSC_RDPS_WindSpeed_IsbL-0900_RLatLon0.09_PT073H.grib2 2026-04-27 21:02 848K
20260427T18Z_MSC_RDPS_WindSpeed_IsbL-0925_RLatLon0.09_PT073H.grib2 2026-04-27 21:02 860K
20260427T18Z_MSC_RDPS_WindSpeed_IsbL-0950_RLatLon0.09_PT073H.grib2 2026-04-27 21:02 858K
20260427T18Z_MSC_RDPS_WindSpeed_IsbL-0970_RLatLon0.09_PT073H.grib2 2026-04-27 21:02 859K
20260427T18Z_MSC_RDPS_WindSpeed_IsbL-0985_RLatLon0.09_PT073H.grib2 2026-04-27 21:02 851K
20260427T18Z_MSC_RDPS_WindSpeed_IsbL-1000_RLatLon0.09_PT073H.grib2 2026-04-27 21:02 847K
20260427T18Z_MSC_RDPS_WindSpeed_IsbL-1015_RLatLon0.09_PT073H.grib2 2026-04-27 21:02 836K
20260427T18Z_MSC_RDPS_WindU_AGL-10m_RLatLon0.09_PT073H.grib2 2026-04-27 21:02 432K
20260427T18Z_MSC_RDPS_WindU_AGL-120m_RLatLon0.09_PT073H.grib2 2026-04-27 21:02 417K
20260427T18Z_MSC_RDPS_WindU_AGL-40m_RLatLon0.09_PT073H.grib2 2026-04-27 21:02 535K
20260427T18Z_MSC_RDPS_WindU_AGL-80m_RLatLon0.09_PT073H.grib2 2026-04-27 21:02 534K
20260427T18Z_MSC_RDPS_WindU_IsbL-0001_RLatLon0.09_PT073H.grib2 2026-04-27 21:02 246K
20260427T18Z_MSC_RDPS_WindU_IsbL-0005_RLatLon0.09_PT073H.grib2 2026-04-27 21:02 288K
20260427T18Z_MSC_RDPS_WindU_IsbL-0010_RLatLon0.09_PT073H.grib2 2026-04-27 21:02 301K
20260427T18Z_MSC_RDPS_WindU_IsbL-0020_RLatLon0.09_PT073H.grib2 2026-04-27 21:02 357K
20260427T18Z_MSC_RDPS_WindU_IsbL-0030_RLatLon0.09_PT073H.grib2 2026-04-27 21:02 318K
20260427T18Z_MSC_RDPS_WindU_IsbL-0050_RLatLon0.09_PT073H.grib2 2026-04-27 21:02 344K
20260427T18Z_MSC_RDPS_WindU_IsbL-0100_RLatLon0.09_PT073H.grib2 2026-04-27 21:02 336K
20260427T18Z_MSC_RDPS_WindU_IsbL-0150_RLatLon0.09_PT073H.grib2 2026-04-27 21:02 398K
20260427T18Z_MSC_RDPS_WindU_IsbL-0175_RLatLon0.09_PT073H.grib2 2026-04-27 21:02 421K
20260427T18Z_MSC_RDPS_WindU_IsbL-0200_RLatLon0.09_PT073H.grib2 2026-04-27 21:02 338K
20260427T18Z_MSC_RDPS_WindU_IsbL-0225_RLatLon0.09_PT073H.grib2 2026-04-27 21:02 343K
20260427T18Z_MSC_RDPS_WindU_IsbL-0250_RLatLon0.09_PT073H.grib2 2026-04-27 21:02 344K
20260427T18Z_MSC_RDPS_WindU_IsbL-0275_RLatLon0.09_PT073H.grib2 2026-04-27 21:02 360K
20260427T18Z_MSC_RDPS_WindU_IsbL-0300_RLatLon0.09_PT073H.grib2 2026-04-27 21:02 354K
20260427T18Z_MSC_RDPS_WindU_IsbL-0350_RLatLon0.09_PT073H.grib2 2026-04-27 21:02 467K
20260427T18Z_MSC_RDPS_WindU_IsbL-0400_RLatLon0.09_PT073H.grib2 2026-04-27 21:02 470K
20260427T18Z_MSC_RDPS_WindU_IsbL-0450_RLatLon0.09_PT073H.grib2 2026-04-27 21:02 469K
20260427T18Z_MSC_RDPS_WindU_IsbL-0500_RLatLon0.09_PT073H.grib2 2026-04-27 21:02 470K
20260427T18Z_MSC_RDPS_WindU_IsbL-0550_RLatLon0.09_PT073H.grib2 2026-04-27 21:02 471K
20260427T18Z_MSC_RDPS_WindU_IsbL-0600_RLatLon0.09_PT073H.grib2 2026-04-27 21:02 463K
20260427T18Z_MSC_RDPS_WindU_IsbL-0650_RLatLon0.09_PT073H.grib2 2026-04-27 21:02 483K
20260427T18Z_MSC_RDPS_WindU_IsbL-0700_RLatLon0.09_PT073H.grib2 2026-04-27 21:02 629K
20260427T18Z_MSC_RDPS_WindU_IsbL-0750_RLatLon0.09_PT073H.grib2 2026-04-27 21:02 658K
20260427T18Z_MSC_RDPS_WindU_IsbL-0800_RLatLon0.09_PT073H.grib2 2026-04-27 21:02 700K
20260427T18Z_MSC_RDPS_WindU_IsbL-0850_RLatLon0.09_PT073H.grib2 2026-04-27 21:02 620K
20260427T18Z_MSC_RDPS_WindU_IsbL-0875_RLatLon0.09_PT073H.grib2 2026-04-27 21:02 638K
20260427T18Z_MSC_RDPS_WindU_IsbL-0900_RLatLon0.09_PT073H.grib2 2026-04-27 21:02 651K
20260427T18Z_MSC_RDPS_WindU_IsbL-0925_RLatLon0.09_PT073H.grib2 2026-04-27 21:02 659K
20260427T18Z_MSC_RDPS_WindU_IsbL-0950_RLatLon0.09_PT073H.grib2 2026-04-27 21:02 654K
20260427T18Z_MSC_RDPS_WindU_IsbL-0970_RLatLon0.09_PT073H.grib2 2026-04-27 21:02 654K
20260427T18Z_MSC_RDPS_WindU_IsbL-0985_RLatLon0.09_PT073H.grib2 2026-04-27 21:02 652K
20260427T18Z_MSC_RDPS_WindU_IsbL-1000_RLatLon0.09_PT073H.grib2 2026-04-27 21:02 788K
20260427T18Z_MSC_RDPS_WindU_IsbL-1015_RLatLon0.09_PT073H.grib2 2026-04-27 21:02 780K
20260427T18Z_MSC_RDPS_WindV_AGL-10m_RLatLon0.09_PT073H.grib2 2026-04-27 21:02 430K
20260427T18Z_MSC_RDPS_WindV_AGL-120m_RLatLon0.09_PT073H.grib2 2026-04-27 21:02 531K
20260427T18Z_MSC_RDPS_WindV_AGL-40m_RLatLon0.09_PT073H.grib2 2026-04-27 21:02 531K
20260427T18Z_MSC_RDPS_WindV_AGL-80m_RLatLon0.09_PT073H.grib2 2026-04-27 21:02 531K
20260427T18Z_MSC_RDPS_WindV_IsbL-0001_RLatLon0.09_PT073H.grib2 2026-04-27 21:02 248K
20260427T18Z_MSC_RDPS_WindV_IsbL-0005_RLatLon0.09_PT073H.grib2 2026-04-27 21:02 289K
20260427T18Z_MSC_RDPS_WindV_IsbL-0010_RLatLon0.09_PT073H.grib2 2026-04-27 21:02 305K
20260427T18Z_MSC_RDPS_WindV_IsbL-0020_RLatLon0.09_PT073H.grib2 2026-04-27 21:02 322K
20260427T18Z_MSC_RDPS_WindV_IsbL-0030_RLatLon0.09_PT073H.grib2 2026-04-27 21:02 322K
20260427T18Z_MSC_RDPS_WindV_IsbL-0050_RLatLon0.09_PT073H.grib2 2026-04-27 21:02 345K
20260427T18Z_MSC_RDPS_WindV_IsbL-0100_RLatLon0.09_PT073H.grib2 2026-04-27 21:02 426K
20260427T18Z_MSC_RDPS_WindV_IsbL-0150_RLatLon0.09_PT073H.grib2 2026-04-27 21:02 395K
20260427T18Z_MSC_RDPS_WindV_IsbL-0175_RLatLon0.09_PT073H.grib2 2026-04-27 21:02 419K
20260427T18Z_MSC_RDPS_WindV_IsbL-0200_RLatLon0.09_PT073H.grib2 2026-04-27 21:02 337K
20260427T18Z_MSC_RDPS_WindV_IsbL-0225_RLatLon0.09_PT073H.grib2 2026-04-27 21:02 341K
20260427T18Z_MSC_RDPS_WindV_IsbL-0250_RLatLon0.09_PT073H.grib2 2026-04-27 21:02 342K
20260427T18Z_MSC_RDPS_WindV_IsbL-0275_RLatLon0.09_PT073H.grib2 2026-04-27 21:02 357K
20260427T18Z_MSC_RDPS_WindV_IsbL-0300_RLatLon0.09_PT073H.grib2 2026-04-27 21:02 453K
20260427T18Z_MSC_RDPS_WindV_IsbL-0350_RLatLon0.09_PT073H.grib2 2026-04-27 21:02 463K
20260427T18Z_MSC_RDPS_WindV_IsbL-0400_RLatLon0.09_PT073H.grib2 2026-04-27 21:02 465K
20260427T18Z_MSC_RDPS_WindV_IsbL-0450_RLatLon0.09_PT073H.grib2 2026-04-27 21:02 465K
20260427T18Z_MSC_RDPS_WindV_IsbL-0500_RLatLon0.09_PT073H.grib2 2026-04-27 21:02 466K
20260427T18Z_MSC_RDPS_WindV_IsbL-0550_RLatLon0.09_PT073H.grib2 2026-04-27 21:02 467K
20260427T18Z_MSC_RDPS_WindV_IsbL-0600_RLatLon0.09_PT073H.grib2 2026-04-27 21:02 477K
20260427T18Z_MSC_RDPS_WindV_IsbL-0650_RLatLon0.09_PT073H.grib2 2026-04-27 21:02 479K
20260427T18Z_MSC_RDPS_WindV_IsbL-0700_RLatLon0.09_PT073H.grib2 2026-04-27 21:02 502K
20260427T18Z_MSC_RDPS_WindV_IsbL-0750_RLatLon0.09_PT073H.grib2 2026-04-27 21:02 527K
20260427T18Z_MSC_RDPS_WindV_IsbL-0800_RLatLon0.09_PT073H.grib2 2026-04-27 21:02 693K
20260427T18Z_MSC_RDPS_WindV_IsbL-0850_RLatLon0.09_PT073H.grib2 2026-04-27 21:02 748K
20260427T18Z_MSC_RDPS_WindV_IsbL-0875_RLatLon0.09_PT073H.grib2 2026-04-27 21:02 634K
20260427T18Z_MSC_RDPS_WindV_IsbL-0900_RLatLon0.09_PT073H.grib2 2026-04-27 21:02 786K
20260427T18Z_MSC_RDPS_WindV_IsbL-0925_RLatLon0.09_PT073H.grib2 2026-04-27 21:02 795K
20260427T18Z_MSC_RDPS_WindV_IsbL-0950_RLatLon0.09_PT073H.grib2 2026-04-27 21:02 791K
20260427T18Z_MSC_RDPS_WindV_IsbL-0970_RLatLon0.09_PT073H.grib2 2026-04-27 21:02 839K
20260427T18Z_MSC_RDPS_WindV_IsbL-0985_RLatLon0.09_PT073H.grib2 2026-04-27 21:02 835K
20260427T18Z_MSC_RDPS_WindV_IsbL-1000_RLatLon0.09_PT073H.grib2 2026-04-27 21:02 830K
20260427T18Z_MSC_RDPS_WindV_IsbL-1015_RLatLon0.09_PT073H.grib2 2026-04-27 21:02 822K